Location: Unspecified
(40.7945°N, 0.0000°E)
Time: 23:19:57
(UTC+00:00)

TIGRISAT - Pass Details

Date: 25 August 2019
Orbit: 605 x 690 km, 97.7° (Epoch: 21 September)

Event Time Altitude Azimuth Distance (km) Brightness Sun altitude
Rises 20:33:56 0° 17° (NNE) 3,022 ? -19.7°
Reaches altitude 10° 20:36:15 10° 22° (NNE) 2,091 ? -20.1°
Maximum altitude 20:40:42 52° 99° (E) 814 ? -20.7°
Enters shadow 20:40:52 51° 107° (ESE) 816 ? -20.8°
